When you browse on this site, cookies collect data to enhance your experience and personalize the content and advertising you see.
Visit our Privacy Policy to learn more. By continuing to use the site, you agree to this use of cookies and data.
  • In Romania
  • List of Countries
  • For 7 days
  • Water Temperature
  • Weather Map
  • Weather Widgets
  • user-avatar
    Login

    Hourly Weather Kaprun

    Today, 21 August, Wednesday

    Time Temperature Precipitation Wind Pressure Humidity
    00:00 +8°C° 0.3 mm 2 mps 603 mmHg 98%
    01:00 +7°C° 0.3 mm 2 mps 603 mmHg 98%
    02:00 +7°C° 1.4 mm 2 mps 603 mmHg 98%
    03:00 +6°C° 1.4 mm 2 mps 602 mmHg 98%
    04:00 +5°C° 1.4 mm 2 mps 602 mmHg 97%
    05:00 +5°C° 1.4 mm 2 mps 602 mmHg 97%
    06:00 +5°C° 1.4 mm 2 mps 603 mmHg 97%
    07:00 +7°C° 1.4 mm 1 mps 603 mmHg 97%
    08:00 +8°C° 0.1 mm 1 mps 603 mmHg 94%
    09:00 +9°C° 0.1 mm 1 mps 604 mmHg 92%
    10:00 +10°C° 0.1 mm 1 mps 604 mmHg 89%
    11:00 +10°C° 0.3 mm 1 mps 604 mmHg 87%
    12:00 +11°C° 0.3 mm 1 mps 604 mmHg 85%
    13:00 +12°C° 0.3 mm 1 mps 605 mmHg 83%
    14:00 +12°C° 0.6 mm 1 mps 604 mmHg 83%
    15:00 +12°C° 0.6 mm 1 mps 604 mmHg 84%
    16:00 +12°C° 0.6 mm 1 mps 604 mmHg 84%
    17:00 +11°C° 0.4 mm 1 mps 604 mmHg 87%
    18:00 +10°C° 0.4 mm 1 mps 604 mmHg 91%
    19:00 +10°C° 0.4 mm 1 mps 603 mmHg 94%
    20:00 +9°C° 0.2 mm 1 mps 603 mmHg 95%
    21:00 +7°C° 0.2 mm 0 mps 603 mmHg 96%
    22:00 +7°C° 0.2 mm 0 mps 603 mmHg 97%
    23:00 +7°C° 0 mm 0 mps 603 mmHg 96%

    Tomorrow, 22 August, Thursday

    Time Temperature Precipitation Wind Pressure Humidity
    00:00 +7°C° 0 mm 0 mps 603 mmHg 95%
    01:00 +7°C° 0 mm 1 mps 602 mmHg 95%
    02:00 +6°C° 0 mm 0 mps 602 mmHg 94%
    03:00 +6°C° 0 mm 0 mps 602 mmHg 94%
    04:00 +6°C° 0 mm 0 mps 602 mmHg 94%
    05:00 +7°C° 0 mm 0 mps 602 mmHg 92%
    06:00 +8°C° 0 mm 0 mps 603 mmHg 89%
    07:00 +9°C° 0 mm 0 mps 604 mmHg 87%
    08:00 +11°C° 0.2 mm 0 mps 604 mmHg 82%
    09:00 +14°C° 0.2 mm 1 mps 605 mmHg 76%
    10:00 +15°C° 0.2 mm 1 mps 606 mmHg 71%
    11:00 +16°C° 0.7 mm 1 mps 606 mmHg 69%
    12:00 +16°C° 0.7 mm 1 mps 606 mmHg 67%
    13:00 +18°C° 0.7 mm 1 mps 606 mmHg 66%
    14:00 +18°C° 1.3 mm 1 mps 605 mmHg 69%
    15:00 +16°C° 1.3 mm 1 mps 605 mmHg 73%
    16:00 +16°C° 1.3 mm 1 mps 605 mmHg 77%
    17:00 +14°C° 0.8 mm 1 mps 604 mmHg 81%
    18:00 +13°C° 0.8 mm 1 mps 604 mmHg 86%
    19:00 +10°C° 0.8 mm 0 mps 603 mmHg 91%
    20:00 +10°C° 0.2 mm 0 mps 603 mmHg 91%
    21:00 +9°C° 0.2 mm 0 mps 603 mmHg 90%
    22:00 +8°C° 0.2 mm 0 mps 604 mmHg 90%
    23:00 +8°C° 0 mm 0 mps 603 mmHg 90%

    Day after tomorrow, 23 August, Friday

    Time Temperature Precipitation Wind Pressure Humidity
    00:00 +8°C° 0 mm 0 mps 603 mmHg 89%
    01:00 +8°C° 0 mm 0 mps 603 mmHg 89%
    02:00 +7°C° 0 mm 0 mps 603 mmHg 89%
    03:00 +7°C° 0 mm 0 mps 602 mmHg 89%
    04:00 +8°C° 0 mm 1 mps 602 mmHg 89%
    05:00 +9°C° 0 mm 1 mps 603 mmHg 87%
    06:00 +10°C° 0 mm 0 mps 604 mmHg 84%
    07:00 +11°C° 0 mm 0 mps 604 mmHg 82%
    08:00 +13°C° 0.1 mm 1 mps 605 mmHg 77%
    09:00 +15°C° 0.1 mm 1 mps 605 mmHg 73%
    10:00 +16°C° 0.1 mm 1 mps 606 mmHg 68%
    11:00 +18°C° 0.9 mm 1 mps 606 mmHg 68%
    12:00 +18°C° 0.9 mm 1 mps 606 mmHg 69%
    13:00 +18°C° 0.9 mm 1 mps 606 mmHg 69%
    14:00 +18°C° 1.2 mm 1 mps 605 mmHg 72%
    15:00 +16°C° 1.2 mm 1 mps 605 mmHg 75%
    16:00 +16°C° 1.2 mm 1 mps 604 mmHg 78%
    17:00 +15°C° 0.5 mm 1 mps 604 mmHg 82%
    18:00 +13°C° 0.5 mm 1 mps 603 mmHg 85%
    19:00 +12°C° 0.5 mm 1 mps 603 mmHg 89%
    20:00 +11°C° 0.1 mm 1 mps 603 mmHg 89%
    21:00 +10°C° 0.1 mm 1 mps 602 mmHg 88%
    22:00 +9°C° 0.1 mm 1 mps 602 mmHg 88%
    23:00 +9°C° 0 mm 1 mps 602 mmHg 88%

    24 August, Saturday

    Time Temperature Precipitation Wind Pressure Humidity
    00:00 +9°C° 0 mm 1 mps 602 mmHg 87%
    01:00 +9°C° 0 mm 1 mps 601 mmHg 87%
    02:00 +9°C° 0 mm 1 mps 601 mmHg 87%
    03:00 +9°C° 0 mm 1 mps 601 mmHg 86%
    04:00 +9°C° 0 mm 1 mps 601 mmHg 86%
    05:00 +10°C° 0 mm 1 mps 602 mmHg 84%
    06:00 +11°C° 0 mm 1 mps 602 mmHg 82%
    07:00 +12°C° 0 mm 1 mps 603 mmHg 80%
    08:00 +14°C° 0 mm 1 mps 604 mmHg 73%
    09:00 +16°C° 0 mm 1 mps 604 mmHg 66%
    10:00 +19°C° 0 mm 1 mps 605 mmHg 58%
    11:00 +19°C° 0.7 mm 1 mps 605 mmHg 61%
    12:00 +19°C° 0.7 mm 1 mps 605 mmHg 63%
    13:00 +19°C° 0.7 mm 1 mps 604 mmHg 65%
    14:00 +18°C° 1 mm 1 mps 604 mmHg 69%
    15:00 +18°C° 1 mm 1 mps 603 mmHg 72%
    16:00 +16°C° 1 mm 1 mps 603 mmHg 76%
    17:00 +14°C° 0.8 mm 1 mps 602 mmHg 81%
    18:00 +12°C° 0.8 mm 1 mps 601 mmHg 86%
    19:00 +11°C° 0.8 mm 1 mps 601 mmHg 91%
    20:00 +10°C° 0.1 mm 1 mps 601 mmHg 89%
    21:00 +10°C° 0.1 mm 1 mps 601 mmHg 88%
    22:00 +10°C° 0.1 mm 1 mps 601 mmHg 87%
    23:00 +9°C° 0 mm 1 mps 601 mmHg 86%

    25 August, Sunday

    Time Temperature Precipitation Wind Pressure Humidity
    00:00 +9°C° 0 mm 1 mps 600 mmHg 86%
    01:00 +9°C° 0 mm 1 mps 600 mmHg 86%
    02:00 +9°C° 0 mm 1 mps 600 mmHg 85%
    03:00 +8°C° 0 mm 1 mps 600 mmHg 85%
    04:00 +8°C° 0 mm 1 mps 600 mmHg 84%
    05:00 +10°C° 0 mm 1 mps 601 mmHg 81%
    06:00 +10°C° 0 mm 0 mps 601 mmHg 79%
    07:00 +12°C° 0 mm 0 mps 602 mmHg 76%
    08:00 +14°C° 0 mm 1 mps 603 mmHg 69%
    09:00 +16°C° 0 mm 1 mps 604 mmHg 62%
    10:00 +19°C° 0 mm 1 mps 604 mmHg 55%
    11:00 +19°C° 0.7 mm 1 mps 604 mmHg 55%
    12:00 +20°C° 0.7 mm 1 mps 604 mmHg 55%
    13:00 +20°C° 0.7 mm 1 mps 604 mmHg 55%
    14:00 +19°C° 1.5 mm 1 mps 604 mmHg 63%
    15:00 +18°C° 1.5 mm 1 mps 603 mmHg 71%
    16:00 +16°C° 1.5 mm 1 mps 603 mmHg 79%
    17:00 +15°C° 1.4 mm 1 mps 602 mmHg 83%
    18:00 +13°C° 1.4 mm 1 mps 602 mmHg 87%
    19:00 +12°C° 1.4 mm 1 mps 601 mmHg 91%
    20:00 +12°C° 0.3 mm 1 mps 601 mmHg 91%
    21:00 +11°C° 0.3 mm 1 mps 602 mmHg 91%
    22:00 +11°C° 0.3 mm 1 mps 602 mmHg 90%
    23:00 +10°C° 0 mm 1 mps 602 mmHg 90%

    26 August, Monday

    Time Temperature Precipitation Wind Pressure Humidity
    00:00 +10°C° 0 mm 1 mps 601 mmHg 89%
    01:00 +9°C° 0 mm 1 mps 601 mmHg 89%
    02:00 +9°C° 0 mm 1 mps 601 mmHg 89%
    03:00 +9°C° 0 mm 1 mps 601 mmHg 89%
    04:00 +8°C° 0 mm 1 mps 601 mmHg 89%
    05:00 +10°C° 0 mm 1 mps 601 mmHg 88%
    06:00 +11°C° 0 mm 1 mps 602 mmHg 86%
    07:00 +12°C° 0 mm 1 mps 603 mmHg 85%
    08:00 +14°C° 0.1 mm 1 mps 604 mmHg 78%
    09:00 +15°C° 0.1 mm 1 mps 604 mmHg 71%
    10:00 +18°C° 0.1 mm 1 mps 605 mmHg 64%
    11:00 +18°C° 1 mm 1 mps 605 mmHg 63%
    12:00 +19°C° 1 mm 1 mps 605 mmHg 62%
    13:00 +19°C° 1 mm 1 mps 605 mmHg 60%
    14:00 +19°C° 0.8 mm 1 mps 605 mmHg 61%
    15:00 +19°C° 0.8 mm 1 mps 605 mmHg 61%
    16:00 +17°C° 0.8 mm 2 mps 605 mmHg 61%
    17:00 +15°C° 0.1 mm 1 mps 604 mmHg 70%
    18:00 +13°C° 0.1 mm 1 mps 603 mmHg 79%
    19:00 +11°C° 0.1 mm 1 mps 602 mmHg 89%
    20:00 +10°C° 0 mm 1 mps 602 mmHg 89%
    21:00 +10°C° 0 mm 1 mps 602 mmHg 89%
    22:00 +9°C° 0 mm 1 mps 602 mmHg 89%
    23:00 +9°C° 0 mm 1 mps 602 mmHg 88%
    Show more